sat.trackr.live / text

‹ back to catalog

STARLINK-35309

NORAD 66323 · 2025-253E

PAYLOAD ACTIVE UNKNOWN

§ Identity

Operator
Country
US
Launch date
2025-11-06
Launch site
AFETR
Launch vehicle
Mass (kg)
RCS (m²)

Purposes: comms

External: N2YO · Heavens-Above · Gunter

§ Orbital elements

Epoch: 2026-09-20T04:03:52.900992Z

Period
94.27 min
Inclination
42.9996°
Eccentricity
0.0000737
Mean motion
15.27589759 rev/d
Perigee alt
482.5 km
Apogee alt
483.5 km
Semi-major
6,861.2 km
B*
4.6269e-4
RAAN
194.5263°
Arg perigee
19.2085°
Mean anomaly
340.8795°
Rev number
4,998

§ Raw data

STARLINK-353091 66323U 25253E   26263.16936228  .00012495  00000+0  46269-3 0  99932 66323  42.9996 194.5263 0000737  19.2085 340.8795 15.27589759 49987

JSON: /api/v1/satellites/66323 · /tle

For live sub-satellite position, see the globe view (requires WebGL).

§ Visibility from observer

Set your observer location to see the next 7 days of passes ≥ 10°. The values pass through the URL so the page stays shareable.

No JS? Fill the form by hand. The geolocation button needs JavaScript.